CAPE
29 145 41 3 0 0 0 0 0 0 0 1 0 0 0 0 0 0 3 41 30 13 0 0 0 0 11
29 101 127 29 9 0 0 0 1 1 0 0 0 0 0 0 0 0 8 22 5 0 0 0 0 0 15
98 49 11 79 67 15 2 2 2 1 0 0 0 0 0 0 0 0 0 4 0 0 0 0 0 1 1
103 45 8 11 51 50 17 6 2 0 0 0 0 0 0 0 0 0 0 0 0 0 0 0 0 1 1
102 53 22 0 24 10 34 1 0 0 0 0 0 0 0 0 0 0 1 1 0 1 0 0 0 0 3
63 44 26 21 9 7 2 0 0 0 0 0 0 0 0 0 1 1 2 2 2 0 0 0 2 2 0
54 56 38 27 0 0 0 0 0 1 0 0 1 1 1 2 3 3 1 0 0 0 0 0 1 0 0
0 0 1 0 0 0 0 1 2 2 0 0 0 2 1 1 2 0 0 0 0 1 2 1 0 0 0
6 4 2 2 1 0 0 1 1 1 0 1 0 2 1 1 0 0 1 1 0 0 1 0 0 0 0
1 0 0 1 0 0 0 0 0 0 1 0 1 1 0 0 0 0 0 1 0 2 0 0 0 0 0
2 3 1 0 0 1 2 0 0 2 1 0 0 0 0 0 0 0 0 0 0 0 0 0 0 1 1
0 0 1 0 1 1 0 1 1 1 0 0 0 0 0 0 0 0 0 0 0 0 0 0 0 0 0
0 0 0 0 0 0 0 0 0 0 0 0 0 0 0 0 0 0 0 0 0 0 0 2 0 0 0
0 0 0 0 0 0 0 0 0 0 0 0 0 0 0 0 0 0 0 0 0 0 0 0 1 0 0
0 0 0 0 0 0 0 0 0 0 0 0 0 0 0 0 0 0 0 0 0 0 1 1 0 0 1
0 0 0 0 0 0 0 0 0 0 0 0 0 0 0 0 0 0 0 0 0 0 0 0 0 0 1
0 0 0 0 0 0 0 0 0 0 0 0 0 0 0 0 0 0 0 0 0 0 0 0 0 0 4
CIN
-3 -24 -70 -97 0 0 0 0 0 0 0 -172 0 0 0 0 0 0 -46 -25 -29 -38 -1 0 -24 -2 -6
-13 -10 -13 -78 -125 0 0 0 0 0 0 -12 0 0 0 0 0 0 -26 -15 -33 -13 0 0 0 0 0
-1 -6 -10 -27 -33 -67 0 0 0 0 0 0 0 0 0 0 0 0 0 -11 -3 0 0 0 0 0 0
0 -1 -4 -14 -40 -42 -2 -48 -23 0 0 0 0 0 0 0 0 0 -5 0 0 0 0 0 0 0 0
-1 0 -1 -1 -14 -8 -14 -9 0 0 0 0 0 0 0 0 0 0 0 0 0 0 0 0 0 0 0
0 0 0 -1 -19 -29 -32 0 -1 0 0 0 0 0 0 0 0 0 0 0 0 0 0 0 0 0 0
0 -1 -2 -4 -3 -1 -4 0 0 0 0 0 0 0 0 0 0 0 0 0 0 0 0 0 0 0 0
0 0 0 0 0 0 0 0 0 0 0 0 0 0 0 0 0 0 0 0 0 0 0 -1 0 0 0
0 0 0 0 0 0 0 0 0 0 0 0 0 0 0 0 0 0 0 0 0 -1 -1 0 0 0 0
0 0 0 0 0 0 0 0 0 0 0 0 0 0 0 0 0 0 0 0 0 -1 -1 0 0 0 -1
0 0 0 0 0 0 0 0 0 0 0 0 0 0 0 0 0 0 0 0 0 0 0 0 0 0 0
0 0 0 0 0 0 0 0 0 0 0 0 0 0 0 0 0 0 0 0 -1 0 0 0 0 0 0
0 0 0 0 0 0 0 0 0 0 0 0 0 0 0 0 0 0 0 0 -1 -1 -1 0 0 0 0
0 0 0 0 0 0 0 0 0 0 0 0 0 0 0 0 0 0 0 0 0 0 0 0 0 0 0
0 0 0 0 0 0 0 0 0 0 0 0 0 0 0 0 0 0 0 -1 0 0 0 0 0 -1 -1
0 0 0 0 0 0 0 0 0 0 0 0 0 0 0 0 0 0 0 0 -1 0 0 0 0 0 -1
0 0 0 0 0 0 0 0 0 0 0 0 0 0 0 0 0 0 0 0 0 -3 0 -2 -2 -2 -2
Wind_Speed
39 36 38 36 33 31 31 32 35 35 36 35 36 34 33 27 36 32 29 26 25 24 23 26 27 27 27
39 37 35 34 36 38 38 36 39 36 32 37 33 31 30 30 26 29 29 26 23 26 23 26 27 28 28
39 38 39 35 34 35 37 39 38 36 33 34 34 28 27 23 24 24 21 20 20 21 24 27 27 27 26
35 36 37 37 34 33 33 33 35 31 33 34 33 35 39 29 21 22 22 20 19 19 21 23 26 27 23
35 35 36 34 30 30 32 32 32 31 32 34 33 34 30 23 22 19 18 15 16 20 22 23 24 22 19
34 36 37 35 31 30 31 31 36 27 29 30 26 26 22 16 11 10 11 14 17 18 20 21 17 16 16
43 39 40 35 29 29 27 30 33 29 24 23 18 16 13 9 10 12 13 15 17 19 18 17 15 14 16
31 32 33 32 29 27 27 26 24 21 20 21 17 14 14 15 14 14 16 16 17 17 16 15 15 16 19
17 18 20 24 25 22 24 19 28 17 22 18 15 14 15 15 16 15 15 15 16 17 17 18 19 20 23
11 14 14 14 17 18 19 17 18 15 18 15 14 16 18 17 16 15 14 15 16 18 17 18 19 22 25
12 13 13 13 15 14 13 11 15 16 18 15 14 14 16 16 16 16 17 18 18 20 21 23 24 24 26
13 14 14 14 15 15 15 14 14 14 17 17 17 17 17 18 18 19 19 21 22 24 25 26 25 26 26
14 15 14 14 14 15 14 13 15 16 17 17 16 16 16 16 18 19 21 22 27 27 28 29 29 27 29
14 14 15 15 15 16 15 14 14 16 17 17 17 17 17 19 21 23 24 26 26 29 31 32 32 31 31
15 15 15 15 16 17 17 17 17 19 20 21 22 21 22 23 25 25 27 29 29 30 31 34 33 33 33
16 16 16 16 17 18 19 19 19 20 22 24 25 25 25 24 21 25 27 29 30 31 32 36 36 33 33
16 17 17 18 18 19 20 21 22 23 24 25 27 28 30 32 29 23 31 34 36 37 36 37 39 37 35
Wind_Direction
273 271 269 271 275 271 274 272 274 274 274 279 281 280 278 280 279 274 271 262 267 275 281 281 289 293 299
272 274 273 272 274 273 271 273 276 278 279 277 278 280 277 280 277 275 270 262 266 275 275 281 286 292 297
272 274 275 276 276 277 274 274 276 277 278 281 281 281 279 265 260 257 254 254 263 271 277 281 286 290 295
276 275 276 276 277 277 277 276 279 281 278 281 283 285 283 281 263 255 247 259 261 265 275 283 286 288 296
275 276 275 277 276 281 277 280 278 283 280 283 287 285 290 284 274 264 255 254 268 272 280 286 288 292 299
279 277 276 276 278 278 280 280 281 282 284 284 287 288 292 288 282 271 264 270 277 281 285 287 296 297 300
274 275 272 277 283 282 279 280 278 282 283 284 285 289 294 290 285 284 281 284 285 284 288 292 297 299 300
281 279 279 285 285 282 282 280 281 283 279 281 280 281 284 280 292 289 290 290 292 293 297 299 299 300 299
307 298 297 297 292 286 277 273 276 279 278 280 285 282 289 292 294 299 302 304 303 302 301 298 300 301 299
329 321 319 319 323 305 286 278 274 280 282 276 284 289 289 294 299 303 309 312 308 306 305 303 303 301 299
349 337 333 326 334 334 328 315 285 284 291 298 292 297 300 303 303 308 309 311 310 307 305 303 301 301 300
346 327 323 330 317 321 323 321 314 306 298 299 299 301 302 300 302 302 307 306 305 303 304 303 304 303 303
360 352 339 339 335 329 331 327 319 317 318 319 321 319 319 315 310 311 312 311 304 302 302 301 303 305 303
2 359 351 347 349 347 345 345 342 335 335 334 330 323 317 313 310 307 307 305 307 305 304 303 304 305 304
347 344 343 342 340 337 333 331 328 322 322 323 322 320 315 311 308 307 306 306 307 306 305 303 305 304 305
340 339 338 336 334 332 329 327 324 322 320 317 316 316 314 313 311 311 311 308 308 307 306 303 303 306 306
334 332 331 329 328 326 326 324 323 321 320 318 316 313 309 307 311 310 309 308 306 304 303 301 300 301 303